STARLINK-32722

Last updated on Wed Jan 29 2025 00:02:04 GMT+0000 (Coordinated Universal Time)

1 62450U 24251U 25028.36900630 .00002762 00000+0 57690-4 0 9992 2 62450 53.1603 67.0975 0001587 93.8182 266.3008 15.49321151 5397
UTC large
Height (km)
Speed (km/s)
/
Latitude / Longitude
Inclination (degrees)
Orbital Period (minutes)
Azimuth
Elevation
Range (km)
Doppler Factor

Next 0 passes for location: London (51.5072 / 0.1276)

Sorry there are no passes over London.